Tracking 18980 objects as of 23-Feb-2018
HD Live streaming from Space Station
objects crossing your sky now

SL-3 DEB

Track SL-3 DEB now!
10-day predictions


NORAD ID: 14928
Int'l Code: 1983-075F
Perigee: 512.7 km
Apogee: 559.5 km
Inclination: 97.9 °
Period: 95.2 minutes
Semi major axis: 6907 km
RCS: 0.0341 m2 (small)
Launch date: July 24, 1983
Source: Commonwealth of Independent States (former USSR) (CIS)
Launch site: TYURATAM MISSILE AND SPACE COMPLEX (TTMTR)

Note: This is SATELLITE DEBRIS
aabbcc
Your satellite tracking list
Your tracking list is empty




NASA's NSSDC Master Catalog

Two Line Element Set (TLE):
1 14928U 83075F   18053.40810296 +.00000335 +00000-0 +23196-4 0  9990
2 14928 097.9163 216.5056 0033873 084.2627 335.9720 15.12368715857906
Source of the keplerian elements: AFSPC